User: anonymous   Login
Location: ?????
(55.8833°N, 37.6500°E)
Time: 07:40:00
(UTC+00:00)
Language:

STARLINK-1056 - Orbit

View from above orbital plane
View from above orbital plane
View from above satellite
View from above satellite

Ground track
Ground track

The orbit data is extracted from the following two-line orbital elements,

1 44761C 19074BA  20157.14839213  .00001146  00000-0  78509-4 0  1570
2 44761  53.0057 309.7480 0001220 107.3949 180.0614 15.05581741    11
Epoch (UTC): 05 June 2020 03:33:41
Eccentricity: 0.0001220
inclination: 53.0057°
perigee height: 549 km
apogee height: 550 km
right ascension of ascending node: 309.7480°
argument of perigee: 107.3949°
revolutions per day: 15.05581741
mean anomaly at epoch: 180.0614°
orbit number at epoch: 1

The dashed part of the orbit path shows where the satellite is in the earth's shadow,  

DLR